Regional Weather Roundup
Issued by NWS

Home | Current Version | Previous Version | Text Only | Print | Product List | Glossary On
Versions: 1 2 3 4 5 6 7 8 9 10 11 12 13 14 15 16 17 18 19 20 21 22 23 24 25 26 27 28 29 30 31 32 33 34 35 36 37 38 39 40 41 42 43 44 45 46 47 48 49 50
000
ASUS46 KPQR 011610
RWROR

OREGON REGIONAL WEATHER ROUNDUP
NATIONAL WEATHER SERVICE PORTLAND OR
900 AM PDT WED OCT 01 2014

NOTE: "FAIR" INDICATES FEW OR NO CLOUDS BELOW 12,000 FEET WITH
NO SIGNIFICANT WEATHER AND/OR OBSTRUCTIONS TO VISIBILITY.

ORZ001>013-011700-
NORTHWEST OREGON


CITY           SKY/WX    TMP DP  RH WIND       PRES   REMARKS
ASTORIA        MOSUNNY   51  50  96 E5        30.23S FOG
NEWPORT        SUNNY     50  50 100 E8        30.27S
PORTLAND       PTSUNNY   53  51  93 CALM      30.25S
VANCOUVER WA   CLOUDY    54  51  90 CALM      30.25S
SCAPPOOSE      CLOUDY    49  48  97 CALM      30.25R
HILLSBORO      MOSUNNY   46  46 100 CALM      30.25S
AURORA         MOSUNNY   50  48  93 CALM      30.26S
MCMINNVILLE    FOG       47  47 100 W3        30.26S VSB 1/4
SALEM          MOSUNNY   52  49  89 SE5       30.24F
CORVALLIS      CLOUDY    50  48  93 CALM      30.26S VSB<1/4
EUGENE         FOG       51  50  96 CALM      30.25S VSB 1/4
$$

ORZ021-028-011700-
SOUTHWEST OREGON


CITY           SKY/WX    TMP DP  RH WIND       PRES   REMARKS
NORTH BEND     SUNNY     54  54 100 CALM      30.23S
BROOKINGS      SUNNY     63  44  49 N10       30.10F
ROSEBURG       MOSUNNY   52  46  80 CALM      30.22F
SEXTON SUMMIT  SUNNY     47  41  80 VRB3      30.18S
MEDFORD        SUNNY     48  42  80 CALM      30.21S
$$

ORZ009-041-011700-
COLUMBIA GORGE


CITY           SKY/WX    TMP DP  RH WIND       PRES   REMARKS
TROUTDALE      CLOUDY    52  50  93 CALM      30.24S
THE DALLES     SUNNY     58  46  64 NW9       30.19S
$$

ORZ029>031-042>050-061>064-011700-
EASTERN OREGON


CITY           SKY/WX    TMP DP  RH WIND       PRES   REMARKS
REDMOND        SUNNY     45  35  68 SE5       30.22R
BEND           SUNNY     43  36  75 SW8       30.24R
KLAMATH FALLS  SUNNY     44  35  70 E5        30.22R
LAKEVIEW       SUNNY     45  32  61 NE9       30.25R
HERMISTON      SUNNY     58  42  55 W10       30.18R
PENDLETON      SUNNY     52  40  63 SE5       30.18S
JOHN DAY       MOSUNNY   49  40  72 CALM      30.21S
MEACHAM        CLOUDY    45  41  86 CALM      30.18S
LA GRANDE      SUNNY     46  34  61 CALM      30.19R
BAKER CITY     SUNNY     45  39  79 VRB3      30.21R
BURNS          SUNNY     38  33  82 CALM      30.23R
ROME             N/A     47  35  63 S6        30.20R
ONTARIO        SUNNY     53  40  61 W9        30.19R
$$


USA.gov is the U.S. government's official web portal to all federal, state and local government web resources and services.